Location: Newark
(39.0622°N, 106.5590°E)
Time: 18:04:13
(UTC+00:00)

Courier 1B Rocket - All Passes

Search period start: 27 January 2020 00:00
Search period end: 06 February 2020 00:00
Orbit: 920 x 1202 km, 28.2° (Epoch: 26 January)

Date Brightness Start Highest point End Pass type
(mag) Time Alt. Az. Time Alt. Az. Time Alt. Az.
27 Jan - 01:46:27 10° S 01:49:22 13° SSE 01:52:14 10° SE daylight
27 Jan - 03:36:09 10° SW 03:42:07 26° SSE 03:47:46 10° ESE daylight
27 Jan - 05:28:41 10° WSW 05:34:59 34° S 05:40:55 10° ESE daylight
27 Jan - 07:22:14 10° WSW 07:27:45 26° SSW 07:33:01 10° SE daylight
27 Jan - 09:18:04 10° SW 09:20:10 12° SSW 09:22:15 10° S daylight
28 Jan - 02:35:35 10° SSW 02:41:10 22° SSE 02:46:32 10° ESE daylight
28 Jan - 04:27:36 10° SW 04:34:03 33° S 04:40:08 10° ESE daylight
28 Jan - 06:20:53 10° WSW 06:26:55 31° S 06:32:37 10° SE daylight
28 Jan - 08:15:26 10° WSW 08:19:29 17° SSW 08:23:24 10° SSE daylight
29 Jan - 01:35:23 10° SSW 01:40:14 18° SSE 01:44:58 10° ESE daylight
29 Jan - 03:26:37 10° SW 03:33:05 31° S 03:39:13 10° ESE daylight
29 Jan - 05:19:36 10° WSW 05:26:02 34° S 05:32:03 10° ESE daylight
29 Jan - 07:13:36 10° WSW 07:18:44 22° SSW 07:23:38 10° SSE daylight
30 Jan - 00:35:52 10° S 00:39:19 13° SSE 00:42:43 10° SE daylight
30 Jan - 02:25:48 10° SW 02:32:06 28° SSE 02:38:07 10° ESE daylight
30 Jan - 04:18:25 10° WSW 04:25:04 35° S 04:31:20 10° ESE daylight
30 Jan - 06:12:03 10° WSW 06:17:56 27° SSW 06:23:29 10° SE daylight
30 Jan - 08:07:52 10° SW 08:10:23 12° SSW 08:12:51 10° S daylight
31 Jan - 01:25:14 10° SSW 01:31:06 24° SSE 01:36:49 10° ESE daylight
31 Jan - 03:17:18 10° WSW 03:24:04 35° S 03:30:29 10° ESE daylight
31 Jan - 05:10:38 10° WSW 05:17:01 32° S 05:23:03 10° SE daylight
31 Jan - 07:05:15 10° WSW 07:09:39 18° SSW 07:13:54 10° SSE daylight
01 Feb - 00:25:03 10° SSW 00:30:09 19° SSE 00:35:10 10° ESE daylight
01 Feb - 02:16:19 10° SW 02:23:02 32° S 02:29:30 10° ESE daylight
01 Feb - 04:09:20 10° WSW 04:16:04 35° S 04:22:25 10° ESE daylight
01 Feb - 06:03:22 10° WSW 06:08:52 23° SSW 06:14:05 10° SSE daylight
01 Feb - 23:25:31 10° S 23:29:13 14° SSE 23:32:55 10° SE visible
02 Feb - 01:15:32 10° SW 01:22:00 29° SSE 01:28:19 10° ESE daylight
02 Feb - 03:08:07 10° WSW 03:15:02 36° S 03:21:38 10° ESE daylight
02 Feb - 05:01:47 10° WSW 05:08:00 28° SSW 05:13:52 10° SE daylight
02 Feb - 06:57:31 10° SW 07:00:31 13° SSW 07:03:27 10° S daylight
03 Feb - 00:15:00 10° SSW 00:20:59 24° SSE 00:26:56 10° ESE daylight
03 Feb - 02:07:02 10° WSW 02:13:58 36° S 02:20:42 10° ESE daylight
03 Feb - 04:00:21 10° WSW 04:07:02 33° S 04:13:22 10° SE daylight
03 Feb - 05:54:58 10° WSW 05:59:44 18° SSW 06:04:20 10° SSE daylight
03 Feb - 23:14:51 10° SSW 23:20:01 19° SSE 23:25:12 10° ESE visible
04 Feb - 01:06:05 10° SW 01:12:54 33° S 01:19:37 10° ESE daylight
04 Feb - 02:59:03 10° WSW 03:06:00 36° S 03:12:40 10° ESE daylight
04 Feb - 04:53:05 10° WSW 04:58:53 24° SSW 05:04:27 10° SSE daylight
04 Feb - 22:15:24 10° S 22:19:06 14° SSE 22:22:52 10° ESE visible
05 Feb - 00:05:21 10° SW 00:11:51 29° SSE 00:18:21 10° ESE daylight
05 Feb - 01:57:53 10° WSW 02:04:55 37° S 02:11:48 10° ESE daylight
05 Feb - 03:51:30 10° WSW 03:57:57 29° SSW 04:04:08 10° SE daylight
05 Feb - 05:47:07 10° SW 05:50:34 14° SSW 05:53:56 10° S daylight
05 Feb - 23:04:53 10° SSW 23:10:51 24° SSE 23:16:52 10° ESE visible
